Location: Ciechanow
(52.8812°N, 20.6195°E)
Time: 01:22:40
(UTC+01:00)

ISS - Pass Details

Date: 28 January 2019
Orbit: 403 x 411 km, 51.6° (Epoch: 22 February)

Event Time Altitude Azimuth Distance (km) Brightness Sun altitude
Rises 17:31:00 0° 235° (SW) 2,328 1.5 -11.5°
Reaches altitude 10° 17:33:09 10° 227° (SW) 1,471 0.1 -11.8°
Maximum altitude 17:36:15 39° 158° (SSE) 637 -2.9 -12.3°
Enters shadow 17:38:04 20° 100° (E) 1,009 -2.4 -12.6°
